Location: Unspecified
(0.0000°N, 0.0000°E)
Time: 23:13:21
(UTC+00:00)

GONETS M 08 (M18) - Pass Details

Date: 20 May 2026
Orbit: 1470 x 1518 km, 82.5° (Epoch: 7 June)

Event Time Altitude Azimuth Distance (km) Brightness Sun altitude
Rises 19:04:20 0° 322° (NW) 4,588 ? -15.9°
Reaches altitude 10° 19:08:33 10° 303° (WNW) 3,605 ? -16.9°
Maximum altitude 19:13:34 17° 267° (W) 3,092 ? -18.0°
Drops below altitude 10° 19:18:38 10° 230° (SW) 3,602 ? -19.2°
Sets 19:22:55 0° 211° (SSW) 4,583 ? -20.2°
